Globalstar
NORAD ID: 38044
Int'l Code: 2011-080E
Perigee: 1,420.3 km
Apogee: 1,421.2 km
Inclination: 52.0 °
Period: 114.1 minutes
Semi major axis: 7791 km
Launch date: December 28, 2011
Source: Globalstar (GLOB)
Two Line Element Set (TLE):
1 38044U 11080E 13142.12928887 -.00000121 00000-0 -96906-4 0 4462
2 38044 051.9879 105.9182 0000524 003.3414 105.6075 12.62264734 66847
Source:
NASA's NSSDC Master Catalog entry for GLOBALSTAR M090